星链-31398 (STARLINK-31398 )

导读 | 豆包AI

STARLINK-31398是美国太空探索技术公司SpaceX星链星座的成员,于2024年4月5日发射。星链计划旨在构建全球卫星互联网,这颗卫星进一步扩充了星座规模,为全球偏远地区、海洋空域提供低延迟宽带服务,提升了卫星网络的覆盖能力与服务稳定性,助力全球互联互通。

基本信息
目录编号:
59415
目录名称:
STARLINK-31398
国际标识:
2024-064T
轨道中心:
EARTH
卫星名称:
星链-31398
卫星全名:
星链-31398 (STARLINK-31398 )
卫星状态:
在轨 (已飞行755 天)
发射日期:
2024-04-05 UTC
国别 :
美国 (US)
星等 :
--
轨道信息
数据来源 国际轨道数据 AOE轨道数据
星历时间 2026-04-30T18:55:38+0800
12小时前
查看轨道信息
2026-04-30T05:00:00+0800
1天前
查看轨道信息
半长轴 6861.166km 6861.215km
偏心率 0.0001027 0.0001265
轨道倾角 43.002° 43.004°
近地点辐角 277.912° 258.630°
升交点赤经 123.740° 127.014°
平近点角 82.162° 146.436°
近地点 482.324km 482.21km
远地点 483.734km 483.946km
周期 94.266分钟 94.267分钟
每日圈数 15.275869 15.275705
详细信息
固有亮度:
5
最大亮度:
0.3
卫星平台:
Starlink v2.0 mini
覆盖范围:
全球
运营商:
太空探索技术公司
运营商所在国:
美国
制造商(研发单位):
太空探索技术公司
制造商所在国:
美国
使用方式:
暂无
卫星简介
星链(Starlink)计划是由太空探索技术公司(SpaceX)提出的一个巨型低轨卫星互联网星座项目,计划在2019年至2024年间在太空搭建由约1.2万颗卫星组成的“星链”网络,其中1584颗将部署在地球上空550千米处的近地轨道,并从2020年开始工作。该卫星仍在工作。
2D轨道图
3D轨道图
轨道高度分析图
轨道倾角分析图
轨道综合分析图
查看轨道综合分析图